Weather History for Fayetteville, NC

Change the Weather History Date:

Monday, April 28, 2014

  Actual Average Record
Temperature  
Mean Temperature 72 °F 66 °F  
Max Temperature 83 °F 78 °F 93 °F (1990)
Min Temperature 60 °F 53 °F 37 °F (1940)
Degree Days  
Heating Degree Days 0 3  
Month to date heating degree days 107 134  
Since 1 July heating degree days 2929 2703  
Cooling Degree Days 7 3  
Month to date cooling degree days 60 59  
Year to date cooling degree days 64 75  
Growing Degree Days 21 (Base 50)    
Moisture  
Dew Point 63 °F    
Average Humidity 78    
Maximum Humidity 97    
Minimum Humidity 58    
Precipitation  
Precipitation 0.17 in 0.06 in 2.00 in (1949)
Month to date precipitation 2.75 2.69  
Year to date precipitation 13.11 12.30  
Sea Level Pressure  
Sea Level Pressure 29.91 in    
Wind  
Wind Speed 7 mph (NE)    
Max Wind Speed 22 mph    
Max Gust Speed 31 mph    
Visibility 8 miles    
Events Rain , Thunderstorm    
T = Trace of Precipitation, MM = Missing Value Source: NWS Daily Summary

Daily Weather History Graph

Daily Weather History Graph

Search for Another Location

Airport:

Trip Planner

Search our weather history database for the weather conditions in past years. The results will help you decide how hot, cold, wet, or windy it might be!

Date:

Astronomy

Apr. 28, 2014 Rise Set
Actual Time 6:27 AM EDT 7:58 PM EDT
Civil Twilight 6:01 AM EDT 8:25 PM EDT
Nautical Twilight 5:28 AM EDT 8:57 PM EDT
Astronomical Twilight 4:55 AM EDT 9:31 PM EDT
Moon 6:02 AM EDT (4/28) 7:35 PM EDT (4/28)
Length of Visible Light 14h 24m
Length of Day
13h 30m
Waning Crescent, 0% of the Moon is Illuminated
Apr 28
Waning Crescent
Apr 29
New
May 6
First Quarter
May 14
Full
May 21
Last Quarter

Hourly Weather History & Observations

Time (EDT) Temp. Heat Index Dew Point Humidity Pressure Visibility Wind Dir Wind Speed Gust Speed Precip Events Conditions
2:53 AM 62.1 °F - 55.9 °F 80% 29.94 in 10.0 mi East 5.8 mph - N/A   Clear
4:53 AM 60.1 °F - 55.9 °F 86% 29.95 in 10.0 mi East 5.8 mph - N/A   Clear
6:53 AM 60.1 °F - 57.0 °F 90% 29.95 in 9.0 mi East 4.6 mph - N/A   Clear
7:53 AM 61.0 °F - 57.0 °F 87% 29.97 in 10.0 mi NNE 5.8 mph - N/A   Overcast
8:53 AM 63.0 °F - 57.9 °F 84% 29.97 in 10.0 mi ENE 4.6 mph - N/A   Overcast
9:44 AM 64.9 °F - 59.0 °F 81% 29.98 in 10.0 mi ENE 3.5 mph - N/A   Overcast
10:00 AM 66.0 °F - 59.0 °F 78% 29.98 in 10.0 mi Calm Calm - N/A   Overcast
10:53 AM 73.0 °F - 62.1 °F 68% 29.95 in 10.0 mi NE 4.6 mph - N/A   Scattered Clouds
11:53 AM 79.0 °F - 64.0 °F 60% 29.93 in 10.0 mi Variable 4.6 mph - N/A   Clear
12:53 PM 77.0 °F - 64.9 °F 66% 29.93 in 10.0 mi NNE 10.4 mph - 0.00 in   Mostly Cloudy
1:53 PM 75.0 °F - 64.0 °F 69% 29.91 in 10.0 mi NE 8.1 mph - N/A   Mostly Cloudy
2:53 PM 82.0 °F 84.1 °F 66.0 °F 58% 29.89 in 10.0 mi ENE 9.2 mph - N/A   Scattered Clouds
3:53 PM 81.0 °F 83.0 °F 66.0 °F 60% 29.85 in 10.0 mi East 8.1 mph - N/A Thunderstorm Partly Cloudy
4:28 PM 75.0 °F - 66.9 °F 76% 29.87 in 10.0 mi North 13.8 mph 23.0 mph 0.00 in Rain , Thunderstorm Light Thunderstorms and Rain
5:01 PM 69.1 °F - 64.9 °F 87% 29.87 in 2.5 mi NNE 15.0 mph - 0.02 in Rain , Thunderstorm Light Thunderstorms and Rain
5:08 PM 69.1 °F - 66.0 °F 90% 29.88 in 6.0 mi NE 9.2 mph - 0.03 in Rain , Thunderstorm Light Thunderstorms and Rain
5:41 PM 69.1 °F - 66.0 °F 90% 29.87 in 3.0 mi Calm Calm - 0.06 in Rain , Thunderstorm Light Rain
6:53 PM 71.1 °F - 66.9 °F 87% 29.85 in 6.0 mi NNE 8.1 mph - N/A   Mostly Cloudy
7:04 PM 71.1 °F - 66.9 °F 87% 29.86 in 9.0 mi NE 10.4 mph - N/A Thunderstorm Mostly Cloudy
7:53 PM 70.0 °F - 68.0 °F 93% 29.86 in 5.0 mi NE 6.9 mph - N/A Thunderstorm Mostly Cloudy
8:17 PM 70.0 °F - 66.9 °F 90% 29.89 in 7.0 mi ENE 5.8 mph - N/A   Scattered Clouds
8:53 PM 68.0 °F - 66.0 °F 93% 29.88 in 8.0 mi NNE 5.8 mph - N/A   Scattered Clouds
9:02 PM 68.0 °F - 64.9 °F 90% 29.90 in 8.0 mi North 8.1 mph - N/A   Mostly Cloudy
9:15 PM 68.0 °F - 64.9 °F 90% 29.90 in 8.0 mi NNE 8.1 mph - N/A   Overcast
9:53 PM 66.0 °F - 63.0 °F 90% 29.89 in 8.0 mi NNE 9.2 mph - N/A   Overcast
11:08 PM 64.0 °F - 62.1 °F 93% 29.91 in 8.0 mi NE 5.8 mph - N/A   Scattered Clouds
11:53 PM 63.0 °F - 61.0 °F 93% 29.88 in 6.0 mi NE 4.6 mph - N/A   Clear